Location: Doschendorf
(50.0069°N, 11.0602°E)
Time: 03:50:35
(UTC+00:00)

Cosmos 2369 - Pass Details

Date: 17 November 2019
Orbit: 838 x 858 km, 71.0° (Epoch: 07 December)

Event Time Altitude Azimuth Distance (km) Brightness Sun altitude
Rises 16:46:51 0° 186° (S) 3,385 7.1 -12.3°
Reaches altitude 10° 16:49:22 10° 180° (S) 2,458 6.3 -12.7°
Maximum altitude 16:54:42 45° 109° (ESE) 1,141 4.0 -13.5°
Enters shadow 16:59:20 14° 42° (NE) 2,216 5.4 -14.2°
